Regional Weather Roundup
Issued by NWS Glasgow, MT

Home | Current Version | Previous Version | Text Only | Print | Product List | Glossary On
Versions: 1 2 3 4 5 6 7 8 9 10 11 12 13 14 15 16 17 18 19 20 21 22 23 24 25 26 27 28 29 30 31 32 33 34 35 36 37 38 39 40 41 42 43 44 45 46 47 48 49 50
000
ASUS45 KGGW 040815
RWRGGW
HOURLY WEATHER ROUNDUP FOR NORTHEAST MONTANA
NATIONAL WEATHER SERVICE GLASGOW MONTANA
100 AM MST WED MAR 04 2015

NOTE: "FAIR" INDICATES FEW OR NO CLOUDS BELOW 12,000 FEET WITH NO
SIGNIFICANT WEATHER AND/OR OBSTRUCTIONS TO VISISBILITY.

NORTHEAST MONTANA


CITY           SKY/WX    TMP DP  RH WIND       PRES   REMARKS
GLASGOW        CLEAR      0  -8  69 NW9       30.18R
PLENTYWOOD       N/A     -6 -10  83 NW12G20     N/A  WCI -25
WOLF POINT     CLEAR      1  -9  62 N8        30.22R
JORDAN           N/A      5  -2  72 W5        30.15R
WINNETT          N/A     10   0  63 W8          N/A
SIDNEY         CLEAR     -2 -11  65 NW9       30.20R
GLENDIVE       NOT AVBL
MALTA            N/A      4   0  83 N8          N/A
SCOBEY           N/A     -5 -16  59 NW8       30.09R

FORT PECK REPORTS


CITY           SKY/WX    TMP DP  RH WIND       PRES   REMARKS
FORT PECK        N/A      2  -3  80 NW10        N/A  WCI -14
THE PINES        N/A      3  -4  72 N7G16       N/A

SOUTHEAST MONTANA


CITY           SKY/WX    TMP DP  RH WIND       PRES   REMARKS
BILLINGS       MOCLDY    11  -7  44 NW14      30.12R WCI  -5
MILES CITY     MOCLDY     7   1  76 NW8       30.15R
BAKER          CLEAR      4  -7  60 NW17G26   30.06R WCI -16
LIVINGSTON     CLEAR      0  -7  72 VRB3      30.08R

CENTRAL MONTANA


CITY           SKY/WX    TMP DP  RH WIND       PRES   REMARKS
HAVRE          CLEAR      0  -5  79 SW9       30.22S
LEWISTOWN      MOCLDY     4  -4  69 W7        30.10R
GREAT FALLS    CLOUDY    10   3  73 SW5       30.17S
CUT BANK       CLEAR      1  -5  75 W6        30.13F
HELENA         CLEAR     10   1  67 W8        30.15R
BUTTE          CLOUDY     7   2  80 S3        30.04R
BOZEMAN        PTCLDY    -1  -6  79 S9        30.10R

WESTERN MONTANA


CITY           SKY/WX    TMP DP  RH WIND       PRES   REMARKS
MISSOULA       CLEAR     17  12  80 W8        30.17R
KALISPELL      NOT AVBL

NORTH DAKOTA


CITY           SKY/WX    TMP DP  RH WIND       PRES   REMARKS
WILLISTON      PTCLDY    -6 -14  68 NW12      30.15R WCI -25
DICKINSON      CLEAR      1  -8  66 NW16G26   30.02R WCI -19
MINOT          FAIR      -4 -12  68 W17       30.06R WCI -26
BISMARCK       MOCLDY     2  -3  80 W5        30.06F

SOUTHERN SASKATCHEWAN


CITY           SKY/WX    TMP DP  RH WIND       PRES   REMARKS
REGINA         CLEAR    -18 -24  76 NW14      30.16  WCI -42
ESTEVAN        CLEAR    -13 -20  70 NW15      30.10R WCI -36
SWIFT CURRENT  CLEAR    -11 -15  84 N8        30.13R




USA.gov is the U.S. government's official web portal to all federal, state and local government web resources and services.